[[{"header":{"parameterUnit":"m.s-1","parameterCategory":1,"la1":30.2991,"la2":30.254,"lo1":-89.0895,"lo2":-89.0444,"dy":0.0017,"dx":0.0017,"nx":28,"ny":28,"refTime":"2023-10-01T03:00:00:Z","depth":0,"parameterNumber":2,"parameterNumberName":"U-component_of_WINDS"},"data":[0,0,0,0,0,0,0,0,0,0,0,0,0,0,0,0,0,0,0,0,0,0,0,0,0,0,0,0,0,0,0,0,0,0,0,0,0,0,0,0,0,0,0,0,0,0,0,0,0,0,0,0,0,0,0,0,0,0,-5.9934,-5.9935,0,-5.9966,-5.9966,-5.9966,-5.9863,-5.986,-5.9857,-5.9854,-5.9885,-5.9889,-5.9892,0,0,0,0,0,0,0,0,0,0,0,0,0,-5.9785,-5.9788,-5.9934,-5.9935,-5.9935,-5.9966,-5.9966,-5.9967,-5.9864,-5.986,-5.9856,-5.9853,-5.9884,-5.9888,-5.9893,0,0,0,0,0,0,0,0,0,0,0,0,0,-5.9836,-5.9789,-5.9934,-5.9888,-5.9884,-5.9966,-5.9966,-5.9967,-5.9865,-5.986,-5.9855,-5.9851,-5.9882,-5.9888,-5.9893,-6.0021,0,0,-5.991,-5.9913,0,0,0,0,0,0,0,0,-5.9833,-5.9842,-5.9894,-5.9891,-5.9887,-5.9906,-5.9925,-5.9985,-5.9866,-5.9872,-5.9854,-5.9849,-5.9896,-5.99,-5.9916,-6.0023,-6.0024,-5.9911,-5.9914,-5.9917,-5.9918,0,0,0,0,0,0,0,-5.983,-5.984,-5.9947,-5.9895,-5.989,-5.9865,-5.9867,-5.9936,-5.9909,-5.9871,-5.9863,-5.9869,-5.9893,-5.9911,-5.9916,-6.0025,-5.9911,-5.9916,-5.9919,-5.9921,-6.024,-6.0245,0,0,0,0,0,0,-5.9833,-5.9838,-5.9946,-5.9948,-5.9848,-5.9871,-5.9874,-5.9904,-5.9908,-5.9905,-5.9873,-5.9864,-5.9904,-5.9909,-5.9917,-6.0068,-5.9917,-5.9922,-5.9925,-6.0235,-6.0241,-6.0247,0,0,0,0,0,0,-5.983,-5.9843,-5.9944,-5.9891,-5.9902,-5.9879,-5.9914,-5.9907,-5.9925,-5.991,-5.9905,-5.9896,-5.99,-5.9909,-5.9997,-6.0068,-5.9924,-5.9929,-6.0229,-6.0237,-6.0244,-6.0372,0,0,0,0,0,0,-5.9826,-5.9843,-5.9891,-5.9893,-5.9905,-6.0024,-5.9918,-5.9911,-5.9935,-5.9924,-5.993,-5.9927,-5.9897,-5.9989,-6.0002,-6.0073,-5.9934,-6.0222,-6.0232,-6.0241,-6.0361,-6.0383,-6.0401,0,0,0,0,0,-5.9821,-5.9925,-5.9894,-5.9908,-5.9965,-6.0029,-6.0035,-5.9999,-5.9942,-5.999,-5.998,-5.9927,-6.0058,-5.9999,-6.0013,-6.0086,-6.0218,-6.023,-6.0241,-6.0352,-6.0378,-6.0401,0,0,0,0,0,0,-5.9932,-5.9925,-5.989,-5.9998,-6.0015,-6.0011,-6.0071,-6.0028,-6.0062,-6.005,-6.0003,-6.0005,-6.0102,-6.0102,-6.0037,-6.0211,-6.0128,-6.0143,-6.0207,-6.0232,-6.0252,-6.025,-5.9938,0,0,0,0,0,-5.9969,-6.0022,-6.0012,-6.0108,-6.0119,-6.0094,-6.012,-6.0091,-6.0106,-6.0113,-6.0109,-6.0126,-6.0171,-6.0202,-6.0242,-6.036,-6.0361,-6.0418,-6.0438,-6.0455,-6.0468,-6.0533,-6.0558,-6.0284,-6.0284,-6.0284,0,0,-6.0046,-6.0049,-6.0085,-6.0131,-6.014,-6.0196,-6.01,-6.0163,-6.0204,-6.0122,-6.0205,-6.0204,-6.0219,-6.0324,-6.0369,-6.0327,-6.0544,-6.0469,-6.0483,-6.0487,-6.0547,-6.0573,-6.0596,-6.0292,-6.0291,-6.0289,0,0,-6.0215,-6.0222,-6.0304,-6.0316,-6.0332,-6.0315,-6.0335,-6.0338,-6.0334,-6.0417,-6.0358,-6.0406,-6.0484,-6.0498,-6.0515,-6.0692,-6.0644,-6.0707,-6.0812,-6.0875,-6.0897,-6.0916,-6.098,-6.1003,-6.072,-6.072,-6.0721,0,-6.0309,-6.0391,-6.0351,-6.0418,-6.0441,-6.0371,-6.0453,-6.0467,-6.0495,-6.0512,-6.0465,-6.0563,-6.0568,-6.0676,-6.0719,-6.0735,-6.0757,-6.0706,-6.0897,-6.0916,-6.0933,-6.0993,-6.1018,-6.0728,-6.0727,-6.0726,-6.0726,0,-6.0505,-6.0563,-6.0627,-6.0658,-6.0687,-6.0762,-6.0734,-6.0769,-6.0738,-6.0726,-6.0812,-6.0817,-6.0858,-6.0881,-6.085,-6.0985,-6.0958,-6.0905,-6.082,-6.0967,-6.1023,-6.1046,-6.0739,-6.0736,-6.0734,-6.0732,0,0,-6.0744,-6.0754,-6.0778,-6.0792,-6.0805,-6.0849,-6.0921,-6.0962,-6.0993,-6.1016,-6.1075,-6.1144,-6.1095,-6.1115,-6.1086,-6.1142,-6.1283,-6.1081,-6.1081,-6.1119,-6.1433,-6.1473,-6.1501,-6.1251,-6.1256,-6.1259,-6.1432,0,-6.0911,-6.1035,-6.1003,-6.1126,-6.1179,-6.1114,-6.1177,-6.1193,-6.1184,-6.1228,-6.1218,-6.1268,-6.1199,-6.1211,-6.1263,-6.1255,-6.1345,-6.1242,-6.1307,-6.131,-6.1306,-6.153,-6.1573,-6.1736,-6.1453,-6.1457,-6.146,0,-6.1123,-6.1155,-6.1284,-6.1291,-6.1312,-6.1369,-6.1405,-6.1448,-6.1464,-6.1454,-6.1478,-6.1438,-6.1509,-6.1424,-6.1523,-6.1453,-6.1478,-6.1478,-6.1483,-6.1488,-6.1394,-6.1542,-6.1786,-6.1811,-6.1494,-6.1491,-6.1489,0,-6.1286,-6.1361,-6.1448,-6.1462,-6.1472,-6.1514,-6.1519,-6.1531,-6.1559,-6.159,-6.1607,-6.1646,-6.1668,-6.1699,-6.1671,-6.1612,-6.1774,-6.1687,-6.1769,-6.177,-6.1806,-6.1804,-6.2059,-6.1821,-6.1821,-6.182,-6.182,0,-6.1476,-6.1558,-6.1522,-6.1576,-6.1666,-6.1628,-6.1718,-6.1716,-6.1728,-6.1781,-6.1726,-6.1777,-6.1737,-6.1784,-6.1763,-6.1848,-6.1858,-6.1852,-6.1846,-6.1858,-6.1859,-6.1873,-6.1862,-6.1827,-6.1825,-6.1824,-6.1823,0,-6.1673,-6.1652,-6.1743,-6.1746,-6.1748,-6.1815,-6.1817,-6.1867,-6.1855,-6.1922,-6.1936,-6.1917,-6.197,-6.1946,-6.2001,-6.1986,-6.2097,-6.2075,-6.2092,-6.2086,-6.217,-6.2163,-6.2443,-6.2479,-6.2218,-6.2221,-6.2223,0,-6.1796,-6.1858,-6.1867,-6.1899,-6.1909,-6.1961,-6.1989,-6.1954,-6.1985,-6.201,-6.2058,-6.2106,-6.2143,-6.2231,-6.2222,-6.2265,-6.2244,-6.2339,-6.225,-6.226,-6.2247,-6.2244,-6.225,-6.2357,-6.236,-6.2363,-6.2365,0,-6.2017,-6.2005,-6.2047,-6.2088,-6.2123,-6.2152,-6.2177,-6.2206,-6.2172,-6.2211,-6.2265,-6.2294,-6.2351,-6.24,-6.2438,-6.2443,-6.24,-6.2393,-6.2415,-6.2428,-6.2435,-6.2434,-6.2142,-6.2387,-6.2385,-6.2383,-6.2382,-6.2381,-6.2182,-6.2234,-6.225,-6.23,-6.2315,-6.234,-6.2388,-6.2383,-6.2427,-6.2472,-6.2448,-6.2512,-6.2528,-6.2574,-6.2586,-6.2636,-6.2598,-6.2629,-6.2636,-6.2645,-6.2657,-6.2428,-6.2642,-6.2642,-6.2641,-6.264,-6.264,0,-6.2401,-6.2408,-6.2455,-6.2492,-6.2532,-6.2487,-6.2513,-6.2549,-6.2606,-6.2625,-6.2663,-6.2726,-6.2774,-6.277,-6.2815,-6.2855,-6.2836,-6.2868,-6.2865,-6.2867,-6.2687,-6.2665,-6.2883,-6.2883,-6.2883,-6.2883,-6.2883,-6.2882,-6.252,-6.2607,-6.2596,-6.2691,-6.2697,-6.276,-6.2778,-6.2801,-6.2817,-6.289,-6.293,-6.2927,-6.2937,-6.2982,-6.3025,-6.3022,-6.3041,-6.3081,-6.3072,-6.2904,-6.288,-6.2857,-6.2835,-6.3086,-6.3086,-6.3247,-6.3249,-6.325]},{"header":{"parameterUnit":"m.s-1","parameterCategory":1,"la1":30.2991,"la2":30.254,"lo1":-89.0895,"lo2":-89.0444,"dy":0.0017,"dx":0.0017,"nx":28,"ny":28,"refTime":"2023-10-01T03:00:00:Z","depth":0,"parameterNumber":3,"parameterNumberName":"V-component_of_WINDS"},"data":[0,0,0,0,0,0,0,0,0,0,0,0,0,0,0,0,0,0,0,0,0,0,0,0,0,0,0,0,0,0,0,0,0,0,0,0,0,0,0,0,0,0,0,0,0,0,0,0,0,0,0,0,0,0,0,0,0,0,-1.9414,-1.9414,0,-1.9419,-1.9419,-1.9419,-1.9377,-1.9376,-1.9374,-1.9373,-1.9379,-1.9381,-1.9382,0,0,0,0,0,0,0,0,0,0,0,0,0,-1.9369,-1.937,-1.9414,-1.9414,-1.9414,-1.9419,-1.9419,-1.9419,-1.9377,-1.9375,-1.9374,-1.9373,-1.9379,-1.938,-1.9382,0,0,0,0,0,0,0,0,0,0,0,0,0,-1.9383,-1.9371,-1.9414,-1.9394,-1.9392,-1.9419,-1.9419,-1.9419,-1.9377,-1.9375,-1.9374,-1.9372,-1.9378,-1.938,-1.9382,-1.9429,0,0,-1.9388,-1.9389,0,0,0,0,0,0,0,0,-1.9382,-1.9385,-1.9397,-1.9395,-1.9393,-1.9395,-1.9405,-1.9422,-1.9378,-1.9383,-1.9373,-1.9371,-1.9386,-1.9387,-1.9392,-1.9429,-1.943,-1.9388,-1.9389,-1.939,-1.939,0,0,0,0,0,0,0,-1.9381,-1.9384,-1.9416,-1.9397,-1.9395,-1.9385,-1.9385,-1.9408,-1.9394,-1.9382,-1.9379,-1.938,-1.9385,-1.939,-1.9392,-1.943,-1.9388,-1.939,-1.9391,-1.9392,-1.9505,-1.9507,0,0,0,0,0,0,-1.9383,-1.9384,-1.9416,-1.9416,-1.9383,-1.9387,-1.9387,-1.9397,-1.9394,-1.9392,-1.9382,-1.9378,-1.9388,-1.939,-1.9392,-1.9446,-1.939,-1.9392,-1.9393,-1.9503,-1.9505,-1.9507,0,0,0,0,0,0,-1.9382,-1.9386,-1.9416,-1.9399,-1.9402,-1.9389,-1.9401,-1.9398,-1.9403,-1.9394,-1.9391,-1.939,-1.9387,-1.9389,-1.942,-1.9446,-1.9393,-1.9394,-1.9501,-1.9504,-1.9506,-1.9556,0,0,0,0,0,0,-1.9381,-1.9386,-1.9404,-1.94,-1.9403,-1.9444,-1.9402,-1.9399,-1.9406,-1.9402,-1.9401,-1.9399,-1.9386,-1.9417,-1.9422,-1.9448,-1.9396,-1.9498,-1.9502,-1.9505,-1.9552,-1.956,-1.9567,0,0,0,0,0,-1.938,-1.9418,-1.9405,-1.9409,-1.9425,-1.9445,-1.9447,-1.9431,-1.9409,-1.9426,-1.942,-1.9399,-1.9442,-1.9421,-1.9425,-1.9452,-1.9497,-1.9501,-1.9505,-1.9548,-1.9558,-1.9567,0,0,0,0,0,0,-1.9427,-1.9417,-1.9403,-1.9441,-1.9444,-1.9438,-1.946,-1.9442,-1.9452,-1.9447,-1.9427,-1.9427,-1.9461,-1.9459,-1.9436,-1.9497,-1.9465,-1.9471,-1.9497,-1.9506,-1.9514,-1.9514,-1.9397,0,0,0,0,0,-1.9441,-1.9458,-1.9449,-1.9484,-1.9486,-1.9473,-1.9481,-1.9468,-1.9471,-1.9472,-1.9468,-1.9472,-1.9486,-1.9496,-1.9509,-1.9551,-1.955,-1.9572,-1.9579,-1.9586,-1.9591,-1.9613,-1.9622,-1.9521,-1.9521,-1.9521,0,0,-1.9472,-1.9469,-1.9481,-1.9493,-1.9494,-1.9512,-1.9474,-1.9495,-1.9509,-1.9475,-1.9504,-1.9501,-1.9504,-1.954,-1.9556,-1.954,-1.9618,-1.9591,-1.9596,-1.9598,-1.9618,-1.9628,-1.9636,-1.9524,-1.9523,-1.9523,0,0,-1.9538,-1.9537,-1.9566,-1.9567,-1.9568,-1.9559,-1.9566,-1.9562,-1.9559,-1.9587,-1.9562,-1.9578,-1.9603,-1.9606,-1.961,-1.9675,-1.9656,-1.968,-1.972,-1.9742,-1.975,-1.9757,-1.978,-1.9788,-1.9685,-1.9685,-1.9685,0,-1.9576,-1.9602,-1.9583,-1.9605,-1.9611,-1.9581,-1.961,-1.9612,-1.9618,-1.9623,-1.9604,-1.9635,-1.9634,-1.9671,-1.9687,-1.9692,-1.9699,-1.9681,-1.975,-1.9757,-1.9763,-1.9785,-1.9794,-1.9688,-1.9688,-1.9687,-1.9687,0,-1.9649,-1.9667,-1.969,-1.9696,-1.9704,-1.973,-1.9714,-1.9725,-1.9711,-1.9704,-1.9732,-1.9731,-1.9742,-1.975,-1.9737,-1.9784,-1.9774,-1.9753,-1.9721,-1.9776,-1.9796,-1.9804,-1.9692,-1.9691,-1.969,-1.969,0,0,-1.9745,-1.9739,-1.9748,-1.975,-1.9748,-1.9762,-1.9786,-1.9797,-1.9806,-1.9811,-1.9831,-1.9852,-1.9832,-1.9838,-1.9825,-1.9843,-1.9895,-1.982,-1.982,-1.9834,-1.9947,-1.9963,-1.9973,-1.9882,-1.9883,-1.9885,-1.9947,0,-1.9809,-1.9849,-1.9832,-1.9874,-1.9891,-1.9861,-1.9882,-1.9884,-1.9877,-1.989,-1.9883,-1.9899,-1.9871,-1.9874,-1.9892,-1.9885,-1.9917,-1.988,-1.99,-1.9901,-1.9901,-1.9984,-2.0001,-2.006,-1.9955,-1.9956,-1.9957,0,-1.9889,-1.9896,-1.994,-1.9935,-1.9941,-1.996,-1.9968,-1.9981,-1.9982,-1.9976,-1.9981,-1.9963,-1.9986,-1.9954,-1.9985,-1.996,-1.9967,-1.9965,-1.9967,-1.9969,-1.9933,-1.9988,-2.0079,-2.0088,-1.9969,-1.9968,-1.9968,0,-1.9955,-1.9976,-2.0004,-2.0007,-2.0001,-2.0015,-2.0014,-2.0013,-2.002,-2.0027,-2.0032,-2.0042,-2.0047,-2.0055,-2.004,-2.0018,-2.0074,-2.004,-2.007,-2.007,-2.0083,-2.0083,-2.0177,-2.0087,-2.0087,-2.0087,-2.0087,0,-2.0028,-2.0056,-2.0033,-2.0051,-2.0081,-2.0061,-2.0091,-2.0087,-2.0086,-2.0102,-2.0077,-2.0093,-2.0073,-2.0086,-2.0075,-2.0103,-2.0105,-2.0101,-2.0098,-2.0104,-2.0104,-2.0108,-2.0104,-2.0089,-2.0089,-2.0088,-2.0088,0,-2.0108,-2.0093,-2.0122,-2.0115,-2.0113,-2.0136,-2.0129,-2.0145,-2.0136,-2.0157,-2.0161,-2.0147,-2.0162,-2.0148,-2.0162,-2.0155,-2.0192,-2.0182,-2.0191,-2.0189,-2.0219,-2.0217,-2.0319,-2.0332,-2.0234,-2.0235,-2.0236,0,-2.0155,-2.0176,-2.017,-2.0179,-2.0179,-2.0193,-2.02,-2.0181,-2.0189,-2.0191,-2.0207,-2.0219,-2.0228,-2.0254,-2.0245,-2.0256,-2.0247,-2.0282,-2.0248,-2.0253,-2.0247,-2.0246,-2.0248,-2.0289,-2.029,-2.0291,-2.0292,0,-2.0242,-2.0234,-2.0244,-2.0253,-2.0261,-2.0267,-2.0271,-2.0279,-2.0259,-2.027,-2.0284,-2.0291,-2.0305,-2.0318,-2.0326,-2.0324,-2.0305,-2.0302,-2.031,-2.0316,-2.032,-2.0319,-2.021,-2.03,-2.0299,-2.0299,-2.0298,-2.0298,-2.0307,-2.0323,-2.0322,-2.0334,-2.0335,-2.0339,-2.0353,-2.0346,-2.0357,-2.0367,-2.0354,-2.0372,-2.0372,-2.038,-2.0381,-2.0395,-2.038,-2.0391,-2.0394,-2.0397,-2.0401,-2.0318,-2.0396,-2.0396,-2.0396,-2.0396,-2.0395,0,-2.0392,-2.0389,-2.0401,-2.0406,-2.0416,-2.0396,-2.0399,-2.0409,-2.0424,-2.0425,-2.0434,-2.0451,-2.0463,-2.0455,-2.0465,-2.0478,-2.0469,-2.0481,-2.048,-2.048,-2.0414,-2.0406,-2.0488,-2.0488,-2.0488,-2.0488,-2.0488,-2.0488,-2.0438,-2.0464,-2.0456,-2.0483,-2.0479,-2.0496,-2.05,-2.0503,-2.0504,-2.0523,-2.0532,-2.0527,-2.0524,-2.0534,-2.0544,-2.0541,-2.0547,-2.0562,-2.0556,-2.0494,-2.0485,-2.0476,-2.0469,-2.0563,-2.0563,-2.0622,-2.0622,-2.0623]}]]